Location: Stamford Observatory
(41.1241°N, 73.5498°W)
Time: 06:19:04
(UTC-04:00)

IRS-P3 - Visible Passes

Search period start: 23 May 2015 00:00
Search period end: 02 June 2015 00:00
Orbit: 814 x 820 km, 98.7° (Epoch: 22 May)

Date Brightness Start Highest point End Pass type
(mag) Time Alt. Az. Time Alt. Az. Time Alt. Az.
23 May 6.0 01:24:14 10° NE 01:27:45 18° E 01:28:35 18° ESE visible
23 May 4.3 03:02:59 10° N 03:08:14 56° WNW 03:09:53 40° SW visible
24 May 6.5 01:04:32 10° ENE 01:05:50 11° E 01:06:48 11° E visible
24 May 4.0 02:41:20 10° NNE 02:46:42 87° WNW 02:48:05 52° SSW visible
24 May 6.2 04:23:52 10° NW 04:26:03 12° WNW 04:27:56 10° W visible
25 May 4.4 02:19:50 10° NNE 02:25:07 60° E 02:26:18 48° SSE visible
25 May 5.8 04:01:03 10° NNW 04:04:44 19° WNW 04:07:36 12° W visible
26 May 5.0 01:58:30 10° NNE 02:03:27 38° E 02:04:30 35° ESE visible
26 May 5.3 03:38:50 10° N 03:43:22 28° WNW 03:45:49 19° WSW visible
27 May 5.6 01:37:26 10° NE 01:41:41 24° E 01:42:43 23° ESE visible
27 May 4.7 03:16:54 10° N 03:21:56 42° WNW 03:24:00 29° WSW visible
28 May 6.2 01:16:52 10° NE 01:19:50 15° E 01:20:55 15° ESE visible
28 May 4.2 02:55:09 10° N 03:00:27 66° WNW 03:02:13 41° SW visible
29 May 4.1 02:33:32 10° NNE 02:38:54 81° ESE 02:40:25 49° S visible
29 May 6.1 04:15:29 10° NNW 04:18:21 14° WNW 04:20:58 10° W visible
30 May 4.6 02:12:05 10° NNE 02:17:17 51° E 02:18:36 42° SE visible
30 May 5.7 03:52:59 10° NNW 03:57:00 22° WNW 03:59:55 14° WSW visible
31 May 5.2 01:50:51 10° NNE 01:55:35 32° E 01:56:48 29° ESE visible
31 May 5.1 03:30:53 10° N 03:35:37 32° WNW 03:38:06 22° WSW visible
01 Jun 5.8 01:29:54 10° NE 01:33:48 21° E 01:35:00 20° ESE visible
01 Jun 4.5 03:09:01 10° N 03:14:10 49° WNW 03:16:18 32° SW visible
